-- Invento GmbH • Download Area --

 NameLast modifiedSizeDescription
[DIR]tft/2019-09-18 10:48 -  
 502345_Wooden_City_Football_Cup.mp42020-02-11 12:14 196M 
 wooden_express_.mp42019-09-18 10:00 143M 
 Bolid by WoodenCity.mp42019-07-18 16:04 46M 
 City Tram by WoodenCity.mp42019-07-18 16:03 135M 
 Safe by WoodenCity.mp42019-07-18 15:59 63M 
 Wooden.city main-corrected2.mp42019-07-03 09:38 313M 
 world_map_puzzle.mp42018-11-14 15:43 464M 
 502330_ferris_wheel.mp42018-08-27 15:22 141M 
 father_trailer_last.mp42018-08-01 08:49 103M 
 502345_globe.mp42018-08-01 08:39 72M 
 father_v8_corrected.mp42018-08-01 08:39 58M 
 502343_pendulum_clock.mp42018-08-01 08:39 81M 
 502346_royal_clock.mp42018-08-01 08:39 76M 
 502359_magic_clock.mp42018-08-01 08:38 84M 
 502344_mystery_box.mp42018-08-01 08:37 113M 
 502324_chariot_da_vinci_mechanical_model.mp42017-09-26 18:12 102M 
 502328_biplane.mov2017-09-26 18:12 96M 
 502332_kinetic_picture.mp42017-09-26 18:12 151M 
 502328_biplane.mp42017-09-26 18:11 60M 
 502324_chariot_da_vinci.mp42017-09-26 18:11 65M 
 502326_london_bus.mp42017-09-26 18:10 115M 
 502336_windmill_mechanical_model.mp42017-09-26 18:10 149M 
 wooden_city_our_young_friendly_team.mp42017-09-26 18:09 170M 
 collection_of_wooden_city.mp42017-09-26 18:09 2.0M 
 502332_kinetic_picture_mechanica_model.mp42017-09-26 18:08 30M 
 502328_biplane_mechanical_model.mp42017-09-26 18:07 8.7M 
 502337_jeep_mechanical_mode.mp42017-09-26 18:07 18M 
 502326_london_bus_mechanical_model.mp42017-09-26 18:07 3.1M 
 502322_roman_chariot_mechanical_model.mp42017-09-26 18:06 134M 
 502326_london_bus_2_.mp42017-09-26 18:04 4.6M 

home

© www.invento-hq.com — Impressum